Lakehurst NAES /Maxfield Field
KNEL : now visible

Airfield :











YOU CAN JOIN US ON...

 
LOGIN :

Register | Disclaimer

   EN    FR    IT 

 









Legend :    VFR   Marginal VFR   IFR   Intensive IFR   Very Intensive IFR
Visi :
Ceiling :
>= 8 km
>= 3000ft
5 to 8 km
1000 to 3000 ft
1500m to 5 km
500 to 1000 ft
800 to 1500m
200 to 500 ft
< 800m
< 200 ft
Symbols :   Thunderstorms  Fog  Heavy snow  Heavy precipitations  Wind > 20 kt






- Airport Elevation : 101 ft
- IATA code : NEL


KNEL - Lakehurst NAES /Maxfield Field

CURRENT METAR :
  • 040000Z AUTO 15005KT 10SM CLR 26/13 A3002 RMK AO2 SLP163 T02560128 10300 20256 51004 $

EXPIRED METARs :
  • 031500Z AUTO 04003KT 10SM SCT070 SCT095 BKN110 24/22 A3002 RMK AO2 RAB1435E1448 SLP163 P0000 60000 T02440217 53001 $
  • 032300Z AUTO 16007KT 10SM CLR 28/13 A2999 RMK AO2 SLP155 T02780133 $
  • 032200Z AUTO 16006KT 10SM CLR 29/13 A2998 RMK AO2 SLP152 T02890133 $

TAF N/A
KZNY FIR / North America



MET'MAP, your aeronautical weather chart ! - Copyright ORBIFLY December 2007 - Disclaimer

ORBIFLY MET'MAP TEAM :

Programming & Development : Alexandra Zaïnal
Original concept : Baudouin d'Aumeries
Technical & hardware support : Manuel Goepfert
Assistance : Marc-Olivier Méhu




SOURCES & CREDITS :

   NOAA       Earth
Advisory